Location: Windsor
(43.2292°N, 89.3015°W)
Time: 09:07:02
(UTC+00:00)

STRAND 1 - Visible Passes

Search period start: 29 June 2022 00:00
Search period end: 09 July 2022 00:00
Orbit: 768 x 780 km, 98.4° (Epoch: 28 June)

Date Brightness Start Highest point End Pass type
(mag) Time Alt. Az. Time Alt. Az. Time Alt. Az.
29 Jun ? 02:28:56 10° NNW 02:32:23 19° WNW 02:35:50 10° WSW visible
02 Jul ? 02:25:26 10° NNW 02:29:02 20° WNW 02:32:38 10° WSW visible
04 Jul ? 02:58:15 10° NW 02:59:24 11° NW 03:00:32 10° WNW visible
05 Jul ? 02:21:57 10° NNW 02:25:41 21° WNW 02:29:25 10° WSW visible
07 Jul ? 02:54:26 10° NW 02:56:03 11° WNW 02:57:41 10° WNW visible
08 Jul ? 02:18:28 10° NNW 02:22:20 22° WNW 02:26:11 10° WSW visible
